This is the latest recevied weather packets stored in our database for station/object K2CCS. If no packets are shown the sender has not sent any weather packets the latest 1 day(s).
| Time | Temp. | Humidity | Pressure | Rain* | Wind** | Luminosity | Snow |
|---|---|---|---|---|---|---|---|
| 1778076900 | 10° C | 99% | 1012.8 hPa | 4.32 mm | - | 35 W/m² | - |
| 1778076295 | 10° C | 99% | 1012.4 hPa | 3.05 mm | - | 34 W/m² | - |
| 1778075992 | 10.56° C | 99% | 1012.5 hPa | 3.05 mm | - | 33 W/m² | - |
| 1778075081 | 10.56° C | 99% | 1012.1 hPa | 3.05 mm | - | 47 W/m² | - |
| 1778074778 | 10.56° C | 99% | 1012.3 hPa | 3.05 mm | - | 48 W/m² | - |
| 1778074172 | 11.11° C | 99% | 1012.2 hPa | 1.78 mm | - | 45 W/m² | - |
| 1778073263 | 11.11° C | 99% | 1012.1 hPa | 1.78 mm | - | 66 W/m² | - |
| 1778072960 | 11.67° C | 99% | 1012.4 hPa | 1.27 mm | - | 18 W/m² | - |
| 1778072656 | 11.67° C | 99% | 1012.3 hPa | 3.05 mm | - | 28 W/m² | - |
| 1778069632 | 12.22° C | 98% | 1012.6 hPa | 3.05 mm | - | 15 W/m² | - |
| 1778068422 | 12.78° C | 98% | 1012.2 hPa | 1.27 mm | - | 23 W/m² | - |
| 1778067817 | 12.78° C | 98% | 1012 hPa | 0 mm | - | 24 W/m² | - |
| 1778066909 | 13.33° C | 98% | 1012.4 hPa | 0 mm | - | 39 W/m² | - |
| 1778066304 | 12.78° C | 98% | 1012.2 hPa | 1.78 mm | - | 27 W/m² | - |
| 1778066002 | 12.78° C | 98% | 1012.1 hPa | 0 mm | - | 20 W/m² | - |
| 1778065396 | 12.78° C | 98% | 1012.1 hPa | 0 mm | - | 28 W/m² | - |
| 1778064487 | 12.78° C | 97% | 1012.1 hPa | 0 mm | - | 10 W/m² | - |
| 1778061462 | 12.78° C | 96% | 1011.7 hPa | 0 mm | - | 0 W/m² | - |
| 1778061158 | 12.78° C | 96% | 1011.5 hPa | 0 mm | - | 0 W/m² | - |
| 1778060855 | 13.33° C | 96% | 1011.5 hPa | 0 mm | - | 0 W/m² | - |
| 1778060252 | 13.33° C | 96% | 1011.9 hPa | 0 mm | - | 0 W/m² | - |
| 1778059646 | 13.33° C | 95% | 1011.9 hPa | 0 mm | - | 0 W/m² | - |
| 1778059344 | 13.33° C | 95% | 1011.9 hPa | 0 mm | - | 0 W/m² | - |
| 1778058738 | 13.33° C | 94% | 1012 hPa | 0 mm | - | 0 W/m² | - |
| 1778058436 | 13.33° C | 94% | 1011.8 hPa | 0 mm | - | 0 W/m² | - |
* Rain latest hour (hover to see other rain measurements)
** Current wind speed in m/s (hover to see current wind gust speed)